Meteo orario Al Jubayl

Oggi, 21 Ottobre, Mercoledi

Tempo Temperatura Precipitazioni Vento Pressione Umidità
00:00 +23°C° 0 mm 2 m/s 758 mm Hg 53%
01:00 +22°C° 0 mm 3 m/s 758 mm Hg 48%
02:00 +21°C° 0 mm 3 m/s 758 mm Hg 43%
03:00 +21°C° 0 mm 4 m/s 757 mm Hg 38%
04:00 +21°C° 0 mm 3 m/s 758 mm Hg 36%
05:00 +20°C° 0 mm 3 m/s 758 mm Hg 33%
06:00 +19°C° 0 mm 3 m/s 759 mm Hg 31%
07:00 +24°C° 0 mm 3 m/s 759 mm Hg 30%
08:00 +27°C° 0 mm 2 m/s 759 mm Hg 30%
09:00 +30°C° 0 mm 2 m/s 759 mm Hg 29%
10:00 +33°C° 0 mm 3 m/s 759 mm Hg 26%
11:00 +35°C° 0 mm 3 m/s 759 mm Hg 24%
12:00 +37°C° 0 mm 3 m/s 759 mm Hg 21%
13:00 +36°C° 0 mm 4 m/s 758 mm Hg 25%
14:00 +36°C° 0 mm 4 m/s 758 mm Hg 28%
15:00 +35°C° 0 mm 5 m/s 758 mm Hg 32%
16:00 +33°C° 0 mm 4 m/s 758 mm Hg 41%
17:00 +30°C° 0 mm 4 m/s 758 mm Hg 51%
18:00 +28°C° 0 mm 4 m/s 758 mm Hg 61%
19:00 +26°C° 0 mm 3 m/s 759 mm Hg 66%
20:00 +24°C° 0 mm 2 m/s 759 mm Hg 72%
21:00 +23°C° 0 mm 1 m/s 759 mm Hg 78%
22:00 +23°C° 0 mm 1 m/s 759 mm Hg 74%
23:00 +23°C° 0 mm 2 m/s 759 mm Hg 71%

Domani, 22 Ottobre, Giovedi

Tempo Temperatura Precipitazioni Vento Pressione Umidità
00:00 +24°C° 0 mm 2 m/s 759 mm Hg 67%
01:00 +22°C° 0 mm 3 m/s 758 mm Hg 61%
02:00 +22°C° 0 mm 4 m/s 758 mm Hg 56%
03:00 +22°C° 0 mm 4 m/s 758 mm Hg 51%
04:00 +22°C° 0 mm 4 m/s 758 mm Hg 48%
05:00 +21°C° 0 mm 4 m/s 758 mm Hg 45%
06:00 +21°C° 0 mm 4 m/s 759 mm Hg 42%
07:00 +25°C° 0 mm 4 m/s 759 mm Hg 34%
08:00 +28°C° 0 mm 4 m/s 759 mm Hg 25%
09:00 +32°C° 0 mm 4 m/s 759 mm Hg 17%
10:00 +34°C° 0 mm 4 m/s 758 mm Hg 16%
11:00 +36°C° 0 mm 4 m/s 758 mm Hg 14%
12:00 +37°C° 0 mm 4 m/s 758 mm Hg 13%
13:00 +37°C° 0 mm 4 m/s 757 mm Hg 15%
14:00 +37°C° 0 mm 4 m/s 757 mm Hg 16%
15:00 +36°C° 0 mm 4 m/s 756 mm Hg 18%
16:00 +34°C° 0 mm 4 m/s 756 mm Hg 31%
17:00 +30°C° 0 mm 3 m/s 757 mm Hg 44%
18:00 +27°C° 0 mm 3 m/s 757 mm Hg 57%
19:00 +26°C° 0 mm 3 m/s 757 mm Hg 63%
20:00 +24°C° 0 mm 2 m/s 757 mm Hg 70%
21:00 +23°C° 0 mm 2 m/s 757 mm Hg 76%
22:00 +23°C° 0 mm 2 m/s 757 mm Hg 71%
23:00 +23°C° 0 mm 2 m/s 757 mm Hg 66%

Dopodomani, 23 Ottobre, Venerdi

Tempo Temperatura Precipitazioni Vento Pressione Umidità
00:00 +23°C° 0 mm 2 m/s 757 mm Hg 60%
01:00 +22°C° 0 mm 3 m/s 757 mm Hg 55%
02:00 +22°C° 0 mm 3 m/s 756 mm Hg 51%
03:00 +22°C° 0 mm 4 m/s 756 mm Hg 46%
04:00 +22°C° 0 mm 4 m/s 757 mm Hg 40%
05:00 +21°C° 0 mm 4 m/s 757 mm Hg 35%
06:00 +21°C° 0 mm 4 m/s 757 mm Hg 29%
07:00 +25°C° 0 mm 4 m/s 757 mm Hg 25%
08:00 +28°C° 0 mm 3 m/s 758 mm Hg 20%
09:00 +30°C° 0 mm 3 m/s 758 mm Hg 16%
10:00 +33°C° 0 mm 3 m/s 757 mm Hg 17%
11:00 +35°C° 0 mm 3 m/s 757 mm Hg 17%
12:00 +37°C° 0 mm 4 m/s 757 mm Hg 18%
13:00 +36°C° 0 mm 4 m/s 756 mm Hg 22%
14:00 +36°C° 0 mm 4 m/s 756 mm Hg 26%
15:00 +35°C° 0 mm 5 m/s 756 mm Hg 30%
16:00 +33°C° 0 mm 4 m/s 756 mm Hg 40%
17:00 +29°C° 0 mm 3 m/s 756 mm Hg 49%
18:00 +26°C° 0 mm 2 m/s 756 mm Hg 58%
19:00 +25°C° 0 mm 2 m/s 757 mm Hg 63%
20:00 +24°C° 0 mm 2 m/s 757 mm Hg 67%
21:00 +23°C° 0 mm 2 m/s 757 mm Hg 72%
22:00 +23°C° 0 mm 2 m/s 757 mm Hg 73%
23:00 +23°C° 0 mm 2 m/s 757 mm Hg 74%

24 Ottobre, Sabato

Tempo Temperatura Precipitazioni Vento Pressione Umidità
00:00 +23°C° 0 mm 2 m/s 757 mm Hg 74%
01:00 +21°C° 0 mm 2 m/s 757 mm Hg 71%
02:00 +21°C° 0 mm 3 m/s 757 mm Hg 69%
03:00 +21°C° 0 mm 3 m/s 757 mm Hg 66%
04:00 +20°C° 0 mm 3 m/s 757 mm Hg 63%
05:00 +20°C° 0 mm 2 m/s 757 mm Hg 61%
06:00 +19°C° 0 mm 2 m/s 757 mm Hg 58%
07:00 +23°C° 0 mm 2 m/s 758 mm Hg 48%
08:00 +27°C° 0 mm 2 m/s 758 mm Hg 37%
09:00 +30°C° 0 mm 2 m/s 759 mm Hg 27%
10:00 +32°C° 0 mm 2 m/s 759 mm Hg 22%
11:00 +34°C° 0 mm 2 m/s 758 mm Hg 18%
12:00 +36°C° 0 mm 2 m/s 758 mm Hg 14%
13:00 +36°C° 0 mm 3 m/s 758 mm Hg 17%
14:00 +36°C° 0 mm 4 m/s 758 mm Hg 21%
15:00 +36°C° 0 mm 5 m/s 757 mm Hg 24%
16:00 +33°C° 0 mm 5 m/s 758 mm Hg 36%
17:00 +30°C° 0 mm 4 m/s 758 mm Hg 47%
18:00 +27°C° 0 mm 4 m/s 758 mm Hg 59%
19:00 +26°C° 0 mm 4 m/s 758 mm Hg 61%
20:00 +26°C° 0 mm 3 m/s 759 mm Hg 63%
21:00 +25°C° 0 mm 3 m/s 759 mm Hg 64%
22:00 +25°C° 0 mm 3 m/s 759 mm Hg 66%
23:00 +24°C° 0 mm 2 m/s 759 mm Hg 68%

25 Ottobre, Domenica

Tempo Temperatura Precipitazioni Vento Pressione Umidità
00:00 +23°C° 0 mm 2 m/s 758 mm Hg 70%
01:00 +23°C° 0 mm 2 m/s 758 mm Hg 72%
02:00 +22°C° 0 mm 1 m/s 758 mm Hg 74%
03:00 +21°C° 0 mm 1 m/s 758 mm Hg 76%
04:00 +21°C° 0 mm 1 m/s 758 mm Hg 76%
05:00 +21°C° 0 mm 1 m/s 759 mm Hg 76%
06:00 +20°C° 0 mm 1 m/s 759 mm Hg 76%
07:00 +24°C° 0 mm 1 m/s 759 mm Hg 63%
08:00 +27°C° 0 mm 2 m/s 760 mm Hg 51%
09:00 +30°C° 0 mm 2 m/s 760 mm Hg 38%
10:00 +32°C° 0 mm 2 m/s 760 mm Hg 32%
11:00 +34°C° 0 mm 2 m/s 759 mm Hg 27%
12:00 +35°C° 0 mm 1 m/s 759 mm Hg 21%
13:00 +36°C° 0 mm 2 m/s 758 mm Hg 23%
14:00 +36°C° 0 mm 3 m/s 758 mm Hg 25%
15:00 +36°C° 0 mm 4 m/s 758 mm Hg 28%
16:00 +33°C° 0 mm 4 m/s 758 mm Hg 38%
17:00 +30°C° 0 mm 4 m/s 758 mm Hg 48%
18:00 +28°C° 0 mm 4 m/s 758 mm Hg 57%
19:00 +28°C° 0 mm 4 m/s 758 mm Hg 59%
20:00 +27°C° 0 mm 3 m/s 759 mm Hg 60%
21:00 +27°C° 0 mm 3 m/s 759 mm Hg 61%
22:00 +26°C° 0 mm 3 m/s 759 mm Hg 63%
23:00 +25°C° 0 mm 3 m/s 759 mm Hg 65%

26 Ottobre, Lunedi

Tempo Temperatura Precipitazioni Vento Pressione Umidità
00:00 +25°C° 0 mm 3 m/s 758 mm Hg 68%
01:00 +24°C° 0 mm 2 m/s 758 mm Hg 70%
02:00 +24°C° 0 mm 2 m/s 758 mm Hg 72%
03:00 +23°C° 0 mm 2 m/s 758 mm Hg 75%
04:00 +23°C° 0 mm 2 m/s 758 mm Hg 74%
05:00 +23°C° 0 mm 2 m/s 759 mm Hg 74%
06:00 +22°C° 0 mm 3 m/s 759 mm Hg 74%
07:00 +25°C° 0 mm 2 m/s 759 mm Hg 63%
08:00 +28°C° 0 mm 2 m/s 760 mm Hg 53%
09:00 +31°C° 0 mm 2 m/s 760 mm Hg 42%
10:00 +32°C° 0 mm 2 m/s 760 mm Hg 35%
11:00 +34°C° 0 mm 1 m/s 759 mm Hg 28%
12:00 +36°C° 0 mm 1 m/s 759 mm Hg 20%
13:00 +36°C° 0 mm 2 m/s 759 mm Hg 23%
14:00 +36°C° 0 mm 4 m/s 758 mm Hg 26%
15:00 +35°C° 0 mm 5 m/s 758 mm Hg 29%
16:00 +33°C° 0 mm 5 m/s 758 mm Hg 39%
17:00 +30°C° 0 mm 5 m/s 758 mm Hg 50%
18:00 +28°C° 0 mm 5 m/s 758 mm Hg 61%
19:00 +27°C° 0 mm 4 m/s 758 mm Hg 64%
20:00 +27°C° 0 mm 4 m/s 758 mm Hg 66%
21:00 +26°C° 0 mm 3 m/s 759 mm Hg 69%
22:00 +26°C° 0 mm 3 m/s 758 mm Hg 71%
23:00 +25°C° 0 mm 2 m/s 758 mm Hg 73%

27 Ottobre, Martedi

Tempo Temperatura Precipitazioni Vento Pressione Umidità
00:00 +25°C° 0 mm 2 m/s 758 mm Hg 74%
01:00 +25°C° 0 mm 3 m/s 758 mm Hg 74%
02:00 +24°C° 0 mm 3 m/s 758 mm Hg 73%
03:00 +24°C° 0 mm 3 m/s 758 mm Hg 73%
04:00 +22°C° 0 mm 3 m/s 758 mm Hg 73%
05:00 +21°C° 0 mm 3 m/s 759 mm Hg 73%
06:00 +20°C° 0 mm 3 m/s 759 mm Hg 74%
07:00 +24°C° 0 mm 3 m/s 759 mm Hg 61%
08:00 +27°C° 0 mm 3 m/s 760 mm Hg 49%
09:00 +30°C° 0 mm 3 m/s 760 mm Hg 36%
10:00 +33°C° 0 mm 3 m/s 760 mm Hg 30%
11:00 +34°C° 0 mm 3 m/s 759 mm Hg 25%
12:00 +36°C° 0 mm 3 m/s 759 mm Hg 19%
13:00 +36°C° 0 mm 3 m/s 759 mm Hg 21%
14:00 +35°C° 0 mm 4 m/s 758 mm Hg 23%
15:00 +35°C° 0 mm 4 m/s 758 mm Hg 25%
16:00 +33°C° 0 mm 4 m/s 758 mm Hg 36%
17:00 +30°C° 0 mm 4 m/s 758 mm Hg 46%
18:00 +27°C° 0 mm 4 m/s 759 mm Hg 57%
19:00 +27°C° 0 mm 4 m/s 759 mm Hg 59%
20:00 +26°C° 0 mm 3 m/s 759 mm Hg 61%
21:00 +26°C° 0 mm 3 m/s 759 mm Hg 64%
22:00 +25°C° 0 mm 3 m/s 759 mm Hg 65%
23:00 +24°C° 0 mm 2 m/s 759 mm Hg 67%
Mostrare altro

Abbiamo bisogno del tuo consenso

Meteoprog e i nostri fornitori di servizi possono memorizzare e accedere a dati personali come cookie, identificatori di dispositivi o altre tecnologie simili sul tuo dispositivo e possono elaborare tali dati per personalizzare i contenuti e gli annunci, nonché fornire funzionalità dei social media e analizzarne il traffico.

  • Archiviare e/o accedere alle informazioni sul tuo dispositivo

    Cookie, identificatori di dispositivi o altre informazioni possono essere memorizzati o resi accessibili sul tuo dispositivo per le finalità sopra indicate.

  • Annunci e contenuti personalizzati, misurazione di annunci e contenuti, approfondimenti sul pubblico e sviluppo di prodotti

    Gli annunci e i contenuti possono essere personalizzati in base a un profilo. È possibile aggiungere più dati per personalizzare meglio annunci e contenuti. È possibile misurare il rendimento degli annunci e dei contenuti. È possibile ricavare informazioni sul pubblico che ha visto gli annunci e i contenuti. Tali dati possono essere utilizzati per sviluppare o migliorare l'esperienza, i sistemi e il software dell'utente.

Cliccando su “Accetto”, acconsenti all'uso di cookie, identificatori di dispositivo, web beacon o altre tecnologie simili. Puoi modificare le impostazioni nel browser del tuo dispositivo.

Per determinati scopi, è possibile fare affidamento su interessi legali, piuttosto che sul consenso. Puoi approfondire questo argomento consultando la nostra Informativa sulla privacy e sui cookie.